Вернуться в каталог

STARLINK-5114

АктивенСвязьVLEO
NORAD 54003·PAYLOAD·🇺🇸 United States

Запущен Oct 5, 2022 с Vandenberg Space Force Base

Loading…

Ближайшие Пролёты (ближайшие 24 часа)

TLE

СвежийSource: CelesTrak SupGP

Эпоха: Sep 15, 2026, 01:24 UTC

1 54003C 22125AR  26258.05881944  .00002184  00000+0  13689-3 0  2588
2 54003  53.1579  83.1809 0001308  87.1218 273.6804 15.08843879    16

Отслеживайте STARLINK-5114 в реальном времени с AllMySat

Download on the App Store